Date String (YYYY-MM-DD hh:mm:ss) UTC,Instrument flags,absolute air pressure of the measurement (hPa),sample flow rate (lpm),inlet stack bypass flow (lpm),air temperature of the measurement (°C),ambient temperature measured by the external sensor (°C),aerosol sample conditioner tube jacket temperature (°C),OPC LED temperature (°C),internal box temperature (°C),relative humidity of the measurement (%),span deviation,mass concentration of particles derived from Lorenz-Mie calculation of OPC scattering (μg/m³),mass concentration of particles derived from Lorenz-Mie calculation of OPC scattering (μg/m³),mass concentration of particles derived from Lorenz-Mie calculation of OPC scattering (μg/m³)
DateTimeUTC,F1_M11,P_M11,Q1_M11,Q2_M11,T1_M11,T2_M11,T3_M11,T4_M11,T5_M11,U1_M11,ZSPAN_M11,X0_M11,X2_M11,X1_M11
2024-03-26 13:00:00,SystemResetWarning,0819.4,5.00,000.00,019.0,019.6,000.0,027.5,021.4,13.4,0000.3,0011.59,0010.09,0009.90
2024-03-26 13:01:00,SystemResetWarning,0819.3,5.00,000.00,019.1,019.3,000.0,027.5,021.3,13.4,0000.6,0011.71,0010.07,0009.87
2024-03-26 13:02:00,SystemResetWarning,0819.3,5.00,000.00,019.0,019.0,000.0,027.5,021.0,13.5,0000.8,0011.96,0010.06,0009.84
2024-03-26 13:03:00,SystemResetWarning,0819.3,5.01,000.00,019.0,018.7,000.0,027.5,020.9,13.5,0000.6,0011.96,0010.04,0009.83
2024-03-26 13:04:00,SystemResetWarning,0819.3,5.01,000.00,018.9,018.5,000.0,027.5,020.7,13.6,0001.8,0012.04,0010.05,0009.82
2024-03-26 13:05:00,SystemResetWarning,0819.3,5.00,000.00,018.9,018.2,000.0,027.4,020.6,13.6,0001.9,0012.09,0010.07,0009.81
2024-03-26 13:06:00,SystemResetWarning,0819.3,4.99,000.00,018.8,018.1,000.0,027.4,020.5,13.7,0001.9,0012.12,0010.08,0009.81
2024-03-26 13:07:00,SystemResetWarning,0819.3,4.99,000.00,018.8,017.9,000.0,027.4,020.4,13.8,0001.4,0012.08,0010.08,0009.82
2024-03-26 13:08:00,SystemResetWarning,0819.3,4.99,000.00,018.7,017.8,000.0,027.4,020.3,13.8,0002.1,0012.01,0010.05,0009.80
2024-03-26 13:09:00,SystemResetWarning,0819.3,5.01,000.00,018.6,017.6,000.0,027.4,020.3,13.9,0002.2,0012.01,0010.03,0009.78
2024-03-26 13:10:00,SystemResetWarning,0819.2,5.01,000.00,018.6,017.5,000.0,027.4,020.2,14.1,0001.7,0012.20,0010.04,0009.78
2024-03-26 13:11:00,SystemResetWarning,0819.3,4.99,000.00,018.5,017.4,000.0,027.3,020.2,14.2,0002.1,0012.49,0010.07,0009.79
2024-03-26 13:12:00,SystemResetWarning,0819.3,5.00,000.00,018.6,018.0,000.0,027.4,020.5,14.2,0002.3,0012.67,0010.09,0009.80
2024-03-26 13:13:00,SystemResetWarning,0819.3,4.99,000.00,018.8,019.0,000.0,027.5,021.1,14.1,0001.0,0012.75,0010.11,0009.83
2024-03-26 13:14:00,SystemResetWarning,0819.3,4.99,000.00,019.0,019.3,000.0,027.5,021.3,14.0,0002.7,0013.15,0010.15,0009.86
2024-03-26 13:15:00,SystemResetWarning,0819.3,5.00,000.00,019.0,019.1,000.0,027.5,021.1,14.1,0001.1,0013.33,0010.16,0009.87
2024-03-26 13:16:00,SystemResetWarning,0819.4,5.00,000.00,019.0,018.8,000.0,027.5,020.9,14.2,0000.3,0013.27,0010.15,0009.88
2024-03-26 13:17:00,SystemResetWarning,0819.4,5.00,000.00,019.0,018.6,000.0,027.5,020.8,14.3,0001.5,0013.29,0010.15,0009.89
2024-03-26 13:18:00,SystemResetWarning,0819.3,5.00,000.00,018.9,018.3,000.0,027.5,020.7,14.4,0002.0,0013.35,0010.18,0009.91
2024-03-26 13:19:00,SystemResetWarning,0819.3,4.99,000.00,018.9,018.1,000.0,027.4,020.6,14.5,0001.4,0013.80,0010.21,0009.92
2024-03-26 13:20:00,SystemResetWarning,0819.4,5.02,000.00,018.8,018.0,000.0,027.4,020.5,14.6,0000.0,0014.56,0010.25,0009.93
2024-03-26 13:21:00,SystemResetWarning,0819.4,5.00,000.00,018.7,017.8,000.0,027.4,020.4,14.7,0000.0,0014.38,0010.23,0009.93
2024-03-26 13:22:00,SystemResetWarning,0819.4,4.99,000.00,018.7,017.7,000.0,027.4,020.3,14.8,0002.2,0014.18,0010.24,0009.93
2024-03-26 13:23:00,SystemResetWarning,0819.4,4.99,000.00,018.6,017.6,000.0,027.4,020.2,15.0,0000.2,0013.93,0010.22,0009.92
2024-03-26 13:24:00,SystemResetWarning,0819.4,5.01,000.00,018.6,017.5,000.0,027.3,020.2,15.0,0001.4,0013.70,0010.22,0009.92
2024-03-26 13:25:00,SystemResetWarning,0819.4,5.01,000.00,018.5,017.4,000.0,027.3,020.1,15.1,0000.2,0013.73,0010.23,0009.94
2024-03-26 13:26:00,SystemResetWarning,0819.4,5.00,000.00,018.6,018.1,000.0,027.4,020.5,15.0,0000.9,0013.55,0010.24,0009.96
2024-03-26 13:27:00,SystemResetWarning,0819.4,5.00,000.00,018.8,019.1,000.0,027.5,021.2,14.8,0001.1,0013.57,0010.26,0009.98
2024-03-26 13:28:00,SystemResetWarning,0819.4,4.98,000.00,019.0,019.3,000.0,027.5,021.3,14.6,0001.1,0013.57,0010.27,0009.99
2024-03-26 13:29:00,SystemResetWarning,0819.4,5.00,000.00,019.0,019.1,000.0,027.5,021.1,14.5,0001.2,0013.93,0010.29,0010.00
2024-03-26 13:30:00,SystemResetWarning,0819.5,4.99,000.00,019.0,018.8,000.0,027.5,020.9,14.5,0000.9,0013.91,0010.32,0010.02
2024-03-26 13:31:00,SystemResetWarning,0819.4,5.00,000.00,018.9,018.6,000.0,027.4,020.7,14.5,0000.8,0012.96,0010.29,0010.01
2024-03-26 13:32:00,SystemResetWarning,0819.4,5.00,000.00,018.9,018.3,000.0,027.4,020.6,14.5,0000.6,0012.97,0010.29,0010.01
2024-03-26 13:33:00,SystemResetWarning,0819.5,5.00,000.00,018.8,018.1,000.0,027.4,020.5,14.5,0000.5,0012.96,0010.30,0010.02
2024-03-26 13:34:00,SystemResetWarning,0819.5,5.01,000.00,018.8,018.0,000.0,027.4,020.4,14.5,0000.7,0012.99,0010.31,0010.03
2024-03-26 13:35:00,SystemResetWarning,0819.4,5.01,000.00,018.7,017.8,000.0,027.4,020.4,14.5,0001.1,0013.02,0010.31,0010.03
2024-03-26 13:36:00,SystemResetWarning,0819.4,5.00,000.00,018.7,017.7,000.0,027.4,020.3,14.5,0000.4,0012.59,0010.28,0010.01
2024-03-26 13:37:00,SystemResetWarning,0819.4,4.99,000.00,018.6,017.6,000.0,027.4,020.3,14.6,0000.1,0012.57,0010.26,0009.98
2024-03-26 13:38:00,SystemResetWarning,0819.5,5.00,000.00,018.5,017.5,000.0,027.3,020.2,14.6,-000.1,0012.65,0010.20,0009.93
2024-03-26 13:39:00,SystemResetWarning,0819.5,4.99,000.00,018.5,017.5,000.0,027.3,020.1,14.6,-000.1,0012.57,0010.15,0009.89
2024-03-26 13:40:00,SystemResetWarning,0819.7,5.00,000.00,018.5,017.8,000.0,027.4,020.4,14.6,-000.3,0012.29,0010.12,0009.85
2024-03-26 13:41:00,SystemResetWarning,0819.8,5.01,000.00,018.7,018.8,000.0,027.5,021.0,14.4,-000.2,0012.09,0010.07,0009.81
2024-03-26 13:42:00,SystemResetWarning,0819.6,4.99,000.00,019.0,019.4,000.0,027.5,021.4,14.2,-000.5,0012.00,0010.03,0009.78
2024-03-26 13:43:00,SystemResetWarning,0819.5,4.99,000.00,019.0,019.2,000.0,027.5,021.2,14.2,-000.4,0011.96,0010.00,0009.76
2024-03-26 13:44:00,SystemResetWarning,0819.5,5.00,000.00,019.0,019.0,000.0,027.5,021.1,14.2,-000.6,0012.06,0009.98,0009.74
2024-03-26 13:45:00,SystemResetWarning,0819.5,5.01,000.00,019.0,018.8,000.0,027.5,020.9,14.2,-001.0,0012.17,0009.94,0009.70
2024-03-26 13:46:00,SystemResetWarning,0819.5,5.00,000.00,018.9,018.6,000.0,027.5,020.8,14.3,-000.9,0012.31,0009.87,0009.65
2024-03-26 13:47:00,SystemResetWarning,0819.6,5.00,000.00,018.9,018.4,000.0,027.4,020.7,14.4,-000.4,0012.39,0009.83,0009.61
2024-03-26 13:48:00,SystemResetWarning,0819.7,5.00,000.00,018.9,018.2,000.0,027.4,020.6,14.5,-000.3,0012.41,0009.81,0009.57
2024-03-26 13:49:00,SystemResetWarning,0819.5,5.00,000.00,018.8,018.1,000.0,027.4,020.5,14.6,-000.4,0012.28,0009.81,0009.56
2024-03-26 13:50:00,SystemResetWarning,0819.5,5.01,000.00,018.8,017.9,000.0,027.4,020.5,14.8,-000.1,0012.31,0009.82,0009.57
2024-03-26 13:51:00,SystemResetWarning,0819.5,5.01,000.00,018.7,017.8,000.0,027.4,020.4,15.0,0000.8,0012.33,0009.84,0009.56
2024-03-26 13:52:00,SystemResetWarning,0819.5,5.00,000.00,018.7,017.7,000.0,027.4,020.4,15.2,0001.2,0012.31,0009.84,0009.58
2024-03-26 13:53:00,SystemResetWarning,0819.7,5.00,000.00,018.6,017.7,000.0,027.4,020.3,15.3,0001.4,0012.44,0009.92,0009.64
2024-03-26 13:54:00,SystemResetWarning,0819.6,4.99,000.00,018.6,017.6,000.0,027.3,020.3,15.4,0000.8,0012.71,0010.04,0009.75
2024-03-26 13:55:00,SystemResetWarning,0819.5,4.99,000.00,018.6,017.5,000.0,027.3,020.2,15.6,0001.0,0012.73,0010.14,0009.86
2024-03-26 13:56:00,SystemResetWarning,0819.5,5.00,000.00,018.5,017.5,000.0,027.3,020.2,15.8,0000.9,0012.70,0010.25,0009.97
2024-03-26 13:57:00,SystemResetWarning,0819.5,5.00,000.00,018.5,017.5,000.0,027.3,020.2,15.9,0000.5,0012.50,0010.39,0010.10
2024-03-26 13:58:00,SystemResetWarning,0819.6,5.02,000.00,018.6,018.3,000.0,027.4,020.7,16.1,0000.6,0012.75,0010.55,0010.24
2024-03-26 13:59:00,SystemResetWarning,0820.0,4.99,000.00,018.9,019.4,000.0,027.5,021.4,15.9,0000.9,0013.07,0010.68,0010.39
